Location: *
(40.7765°S, 106.5327°E)
Time: 15:08:13
(UTC+00:00)

USA 305 - Pass Details

Date: 26 May 2022
Orbit: 549 x 553 km, 54.0° (Epoch: 14 June)

Event Time Altitude Azimuth Distance (km) Brightness Sun altitude
Rises 11:34:56 0° 228° (SW) 2,770 6.9 -21.8°
Reaches altitude 10° 11:37:14 10° 223° (SW) 1,869 5.9 -22.2°
Enters shadow 11:40:46 51° 182° (S) 720 3.3 -22.8°
